When you browse on this site, cookies collect data to enhance your experience and personalize the content and advertising you see.
Visit our Privacy Policy to learn more. By continuing to use the site, you agree to this use of cookies and data.
  • En España
  • Lista de países
  • Para 7 días
  • Temperatura del agua
  • Mapa Satelital
  • El tiempo en el mapa
  • Informadores
  • user-avatar
    Iniciar sesión

    Tiempo cada hora Saurimo

    Hoy, 25 Junio, Martes

    Tiempo Temperatura Precipitaciones Viento Presión Humedad
    00:00 +18°C° 0 mm 1 mps 670 mmHg 45%
    01:00 +16°C° 0 mm 1 mps 670 mmHg 45%
    02:00 +15°C° 0 mm 1 mps 670 mmHg 47%
    03:00 +15°C° 0 mm 1 mps 670 mmHg 48%
    04:00 +15°C° 0 mm 2 mps 670 mmHg 49%
    05:00 +15°C° 0 mm 2 mps 670 mmHg 49%
    06:00 +15°C° 0 mm 2 mps 671 mmHg 49%
    07:00 +16°C° 0 mm 2 mps 671 mmHg 48%
    08:00 +20°C° 0 mm 2 mps 672 mmHg 40%
    09:00 +25°C° 0 mm 3 mps 673 mmHg 32%
    10:00 +29°C° 0 mm 3 mps 673 mmHg 23%
    11:00 +30°C° 0 mm 3 mps 673 mmHg 21%
    12:00 +31°C° 0 mm 2 mps 672 mmHg 18%
    13:00 +32°C° 0 mm 2 mps 672 mmHg 16%
    14:00 +32°C° 0 mm 2 mps 671 mmHg 16%
    15:00 +31°C° 0 mm 2 mps 671 mmHg 16%
    16:00 +31°C° 0 mm 2 mps 670 mmHg 17%
    17:00 +28°C° 0 mm 1 mps 670 mmHg 21%
    18:00 +25°C° 0 mm 1 mps 670 mmHg 25%
    19:00 +22°C° 0 mm 1 mps 670 mmHg 29%
    20:00 +21°C° 0 mm 1 mps 670 mmHg 31%
    21:00 +20°C° 0 mm 1 mps 670 mmHg 32%
    22:00 +20°C° 0 mm 1 mps 670 mmHg 33%
    23:00 +19°C° 0 mm 1 mps 670 mmHg 34%

    Mañana, 26 Junio, Miércoles

    Tiempo Temperatura Precipitaciones Viento Presión Humedad
    00:00 +18°C° 0 mm 1 mps 670 mmHg 36%
    01:00 +16°C° 0 mm 1 mps 670 mmHg 37%
    02:00 +16°C° 0 mm 2 mps 670 mmHg 37%
    03:00 +16°C° 0 mm 2 mps 670 mmHg 38%
    04:00 +15°C° 0 mm 2 mps 670 mmHg 39%
    05:00 +16°C° 0 mm 2 mps 670 mmHg 39%
    06:00 +16°C° 0 mm 2 mps 671 mmHg 40%
    07:00 +17°C° 0 mm 2 mps 671 mmHg 40%
    08:00 +21°C° 0 mm 3 mps 672 mmHg 34%
    09:00 +25°C° 0 mm 3 mps 673 mmHg 28%
    10:00 +29°C° 0 mm 3 mps 673 mmHg 22%
    11:00 +31°C° 0 mm 2 mps 673 mmHg 20%
    12:00 +34°C° 0 mm 2 mps 673 mmHg 17%
    13:00 +35°C° 0 mm 1 mps 672 mmHg 14%
    14:00 +34°C° 0 mm 1 mps 672 mmHg 14%
    15:00 +33°C° 0 mm 1 mps 671 mmHg 14%
    16:00 +32°C° 0 mm 1 mps 671 mmHg 15%
    17:00 +29°C° 0 mm 1 mps 671 mmHg 18%
    18:00 +26°C° 0 mm 1 mps 671 mmHg 22%
    19:00 +23°C° 0 mm 1 mps 670 mmHg 26%
    20:00 +22°C° 0 mm 1 mps 671 mmHg 27%
    21:00 +21°C° 0 mm 1 mps 671 mmHg 29%
    22:00 +20°C° 0 mm 2 mps 671 mmHg 30%
    23:00 +19°C° 0 mm 2 mps 671 mmHg 32%

    Pasado mañana, 27 Junio, Jueves

    Tiempo Temperatura Precipitaciones Viento Presión Humedad
    00:00 +19°C° 0 mm 2 mps 671 mmHg 34%
    01:00 +18°C° 0 mm 2 mps 670 mmHg 36%
    02:00 +18°C° 0 mm 2 mps 670 mmHg 38%
    03:00 +17°C° 0 mm 2 mps 670 mmHg 40%
    04:00 +16°C° 0 mm 2 mps 670 mmHg 41%
    05:00 +17°C° 0 mm 2 mps 671 mmHg 41%
    06:00 +17°C° 0 mm 2 mps 671 mmHg 42%
    07:00 +18°C° 0 mm 2 mps 672 mmHg 42%
    08:00 +23°C° 0 mm 2 mps 672 mmHg 36%
    09:00 +26°C° 0 mm 3 mps 673 mmHg 30%
    10:00 +30°C° 0 mm 3 mps 674 mmHg 23%
    11:00 +33°C° 0 mm 3 mps 673 mmHg 20%
    12:00 +34°C° 0 mm 2 mps 673 mmHg 17%
    13:00 +36°C° 0 mm 2 mps 673 mmHg 14%
    14:00 +35°C° 0 mm 2 mps 672 mmHg 14%
    15:00 +34°C° 0 mm 2 mps 671 mmHg 15%
    16:00 +34°C° 0 mm 2 mps 671 mmHg 15%
    17:00 +30°C° 0 mm 2 mps 671 mmHg 20%
    18:00 +27°C° 0 mm 2 mps 671 mmHg 24%
    19:00 +23°C° 0 mm 2 mps 670 mmHg 29%
    20:00 +23°C° 0 mm 2 mps 671 mmHg 30%
    21:00 +21°C° 0 mm 2 mps 671 mmHg 31%
    22:00 +20°C° 0 mm 2 mps 671 mmHg 32%
    23:00 +20°C° 0 mm 2 mps 671 mmHg 34%

    28 Junio, Viernes

    Tiempo Temperatura Precipitaciones Viento Presión Humedad
    00:00 +19°C° 0 mm 2 mps 671 mmHg 35%
    01:00 +18°C° 0 mm 2 mps 670 mmHg 37%
    02:00 +18°C° 0 mm 2 mps 670 mmHg 37%
    03:00 +18°C° 0 mm 2 mps 670 mmHg 38%
    04:00 +17°C° 0 mm 2 mps 670 mmHg 39%
    05:00 +18°C° 0 mm 2 mps 671 mmHg 39%
    06:00 +18°C° 0 mm 3 mps 671 mmHg 39%
    07:00 +19°C° 0 mm 3 mps 672 mmHg 39%
    08:00 +22°C° 0 mm 3 mps 673 mmHg 34%
    09:00 +27°C° 0 mm 3 mps 673 mmHg 29%
    10:00 +30°C° 0 mm 4 mps 674 mmHg 24%
    11:00 +33°C° 0 mm 3 mps 673 mmHg 21%
    12:00 +34°C° 0 mm 2 mps 673 mmHg 18%
    13:00 +35°C° 0 mm 1 mps 673 mmHg 15%
    14:00 +34°C° 0 mm 1 mps 672 mmHg 15%
    15:00 +35°C° 0 mm 2 mps 671 mmHg 15%
    16:00 +34°C° 0 mm 2 mps 671 mmHg 16%
    17:00 +30°C° 0 mm 2 mps 671 mmHg 20%
    18:00 +27°C° 0 mm 1 mps 671 mmHg 24%
    19:00 +24°C° 0 mm 1 mps 670 mmHg 28%
    20:00 +23°C° 0 mm 1 mps 671 mmHg 30%
    21:00 +21°C° 0 mm 2 mps 671 mmHg 31%
    22:00 +20°C° 0 mm 2 mps 671 mmHg 33%
    23:00 +20°C° 0 mm 2 mps 671 mmHg 34%

    29 Junio, Sábado

    Tiempo Temperatura Precipitaciones Viento Presión Humedad
    00:00 +19°C° 0 mm 2 mps 671 mmHg 34%
    01:00 +19°C° 0 mm 2 mps 671 mmHg 35%
    02:00 +18°C° 0 mm 2 mps 671 mmHg 36%
    03:00 +18°C° 0 mm 2 mps 671 mmHg 37%
    04:00 +17°C° 0 mm 2 mps 671 mmHg 38%
    05:00 +18°C° 0 mm 3 mps 671 mmHg 38%
    06:00 +18°C° 0 mm 3 mps 672 mmHg 38%
    07:00 +18°C° 0 mm 3 mps 672 mmHg 38%
    08:00 +22°C° 0 mm 3 mps 673 mmHg 33%
    09:00 +26°C° 0 mm 4 mps 673 mmHg 28%
    10:00 +30°C° 0 mm 4 mps 674 mmHg 23%
    11:00 +31°C° 0 mm 3 mps 674 mmHg 20%
    12:00 +33°C° 0 mm 3 mps 673 mmHg 18%
    13:00 +35°C° 0 mm 2 mps 673 mmHg 16%
    14:00 +34°C° 0 mm 2 mps 672 mmHg 16%
    15:00 +34°C° 0 mm 2 mps 672 mmHg 16%
    16:00 +32°C° 0 mm 2 mps 671 mmHg 17%
    17:00 +29°C° 0 mm 2 mps 671 mmHg 21%
    18:00 +26°C° 0 mm 2 mps 671 mmHg 25%
    19:00 +24°C° 0 mm 2 mps 671 mmHg 29%
    20:00 +23°C° 0 mm 2 mps 671 mmHg 29%
    21:00 +21°C° 0 mm 2 mps 671 mmHg 29%
    22:00 +21°C° 0 mm 2 mps 672 mmHg 29%
    23:00 +20°C° 0 mm 2 mps 671 mmHg 31%

    30 Junio, Domingo

    Tiempo Temperatura Precipitaciones Viento Presión Humedad
    00:00 +19°C° 0 mm 2 mps 671 mmHg 33%
    01:00 +18°C° 0 mm 2 mps 671 mmHg 35%
    02:00 +18°C° 0 mm 2 mps 671 mmHg 35%
    03:00 +17°C° 0 mm 2 mps 671 mmHg 36%
    04:00 +17°C° 0 mm 2 mps 671 mmHg 37%
    05:00 +17°C° 0 mm 3 mps 671 mmHg 37%
    06:00 +18°C° 0 mm 3 mps 672 mmHg 36%
    07:00 +18°C° 0 mm 3 mps 673 mmHg 35%
    08:00 +22°C° 0 mm 3 mps 673 mmHg 31%
    09:00 +26°C° 0 mm 4 mps 674 mmHg 26%
    10:00 +29°C° 0 mm 4 mps 674 mmHg 22%
    11:00 +31°C° 0 mm 3 mps 674 mmHg 20%
    12:00 +33°C° 0 mm 3 mps 674 mmHg 18%
    13:00 +35°C° 0 mm 2 mps 673 mmHg 16%
    14:00 +34°C° 0 mm 2 mps 673 mmHg 16%
    15:00 +34°C° 0 mm 2 mps 672 mmHg 16%
    16:00 +32°C° 0 mm 2 mps 672 mmHg 16%
    17:00 +29°C° 0 mm 2 mps 671 mmHg 20%
    18:00 +27°C° 0 mm 2 mps 671 mmHg 24%
    19:00 +24°C° 0 mm 2 mps 671 mmHg 27%
    20:00 +23°C° 0 mm 2 mps 671 mmHg 29%
    21:00 +21°C° 0 mm 2 mps 672 mmHg 30%
    22:00 +20°C° 0 mm 2 mps 672 mmHg 32%
    23:00 +19°C° 0 mm 2 mps 672 mmHg 32%
    Mostrar más